Regional Weather Roundup
Issued by NWS Newport/Morehead, NC

Current Version | Previous Version | Graphics & Text | Print | Product List | Glossary On
Versions: 1 2 3 4 5 6 7 8 9 10 11 12 13 14 15 16 17 18 19 20 21 22 23 24 25 26 27 28 29 30 31 32 33 34 35 36 37 38 39 40 41 42 43 44 45 46 47 48 49 50
000 ASUS42 KMHX 012213 RWRMHX WEATHER ROUNDUP FOR EASTERN NORTH CAROLINA NATIONAL WEATHER SERVICE NEWPORT/MOREHEAD CITY NC 600 PM EDT WED JUL 01 2015 NOTE: "FAIR" INDICATES FEW OR NO CLOUDS BELOW 12,000 FEET WITH NO SIGNIFICANT WEATHER AND/OR OBSTRUCTIONS TO VISIBILITY NCZ015>017-031-032-045>047-102-103-012300- NORTH COAST CITY SKY/WX TMP DP RH WIND PRES REMARKS EDENTON N/A 85 69 57 SW5 29.90F ELIZABETH CITY SUNNY 84 69 60 SW8 29.89F KITTY HAWK CLEAR 89 69 51 CALM 29.90R MANTEO MOSUNNY 85 70 59 SW10 29.91S $$ NCZ045>047-081-094-103-104-012300- CENTRAL COAST CITY SKY/WX TMP DP RH WIND PRES REMARKS FRISCO SUNNY 81 74 79 SW12G20 29.93F SWANQUARTER N/A 86 N/A N/A SW14 29.88S $$ NCZ095-097-098-100-101-012300- SOUTHERN COAST CITY SKY/WX TMP DP RH WIND PRES REMARKS BEAUFORT SUNNY 81 75 82 SW16 29.94R CEDAR ISLAND N/A 86 N/A N/A S12 29.97S JACKSONVILLE MOSUNNY 85 72 65 SW5 29.92F PINEY ISLAND CLEAR N/A N/A N/A SW16 29.92R WILMINGTON MOSUNNY 84 74 71 SW9 29.94S $$ NCZ011>013-027>030-043-044-078>080-089-090>093-098-012300- COASTAL PLAIN CITY SKY/WX TMP DP RH WIND PRES REMARKS AHOSKIE SUNNY 82 72 70 CALM 29.90S CLINTON MOSUNNY 82 73 76 S6 29.94S ELIZABETHTOWN SUNNY 83 71 67 SW5 29.94S GOLDSBORO SUNNY 84 71 65 SW7 29.90S GREENVILLE MOSUNNY 86 70 58 SW9 29.93S HAVELOCK SUNNY 83 72 69 S12 29.94R KENANSVILLE SUNNY 81 70 68 CALM 29.94F KINSTON SUNNY 84 70 61 SW9 29.93F NEW BERN SUNNY 85 72 65 SW7 29.93S RICHLANDS MOSUNNY 84 70 61 SW7 29.94S ROCKY MOUNT MOSUNNY 87 67 51 SW10 29.90F WASHINGTON SUNNY 85 69 58 SW6 29.91F WHITEVILLE SUNNY 84 71 66 SW3 29.95R $$ AMZ130-135-150-152-154-156-158-170-250-252-270-ANZ085-086-088-633-658-670-012300- MARINE OBSERVATIONS STATION/POSITION TIME TEMP WIND PRES WAVE SWELL AIR SEA DIR/SP/G HT/PER HT/PER (UTC) (F) (DEG/KT/KT) (MB) (FT/S) (FT/S) CHESAPEAKE LIGHT 2200 81 200/ 6/ 7 1012.3 64 E VA BEACH 2150 78 77 200/ 10/ 12 1011.9 4/ 8 3/ 8 DUCK 2100 84 66 240/ 6/ 10 1011.7 2 E DUCK 2111 74 N/A 2/ 8 OREGON INLET 2100 83 84 200/ 15/ 16 1012.9 13E OREGON INLT 2200 73 N/A 4/ 7 HATTERAS CG 2100 80 82 210/ 13/ 17 1013.3 DIAMOND BUOY 2150 81 83 220/ 17/ 21 1013.3 5/ 6 3/ 8 CAPE LOOKOUT 2200 80 220/ 14/ 17 1013.7 BEAUFORT LAB 2100 81 82 210/ 14/ 18 1012.8 30 SE NEW RVR IN 2108 80 81 230/ 17/ 21 1014.5 27 SE WRIGHTSVLE 2100 80 230/ 16/ 19 N/A 5 SE WRIGHTSVLE 2108 80 81 220/ 17/ 23 1013.7 225 S CAPE HAT 2150 82 80 230/ 17/ 19 1017.8 6/ 7 2/11 41 SE CHARLESTON 2150 81 82 220/ 17/ 19 1014.9 5/ 6 2/ 8 $$

USA.gov is the U.S. government's official web portal to all federal, state and local government web resources and services.